CAPE
1164 1387 644 282 97 1149 631 238 95 36 219 809 919 976 783 523 759 801 703 453 355 271 312 830 1003 707 512 703 821 744 589 366 540 474 467 441 383 267 140 117 259 226 122
1141 1309 474 206 51 137 742 108 0 3 21 16 915 924 1236 1135 1102 569 474 678 507 396 295 468 715 700 422 80 646 501 614 661 718 551 484 406 424 262 221 237 235 136 244
1219 1152 770 255 529 85 285 3 1 0 0 0 664 921 1165 1118 1232 1180 1022 776 847 506 286 337 553 501 791 109 493 613 544 580 744 715 394 235 366 295 248 186 222 245 176
1464 1288 1321 1194 888 520 0 0 0 0 7 3 234 727 721 1010 984 1015 1008 1058 802 863 470 312 325 290 424 351 552 341 680 457 475 519 462 367 255 270 245 209 168 163 196
1328 1086 1201 1113 986 794 221 20 0 2 224 426 510 446 453 664 597 1077 916 806 792 848 830 422 321 180 207 313 25 109 44 69 438 510 391 288 198 160 80 161 140 81 123
1282 933 1117 1033 626 851 928 634 718 329 393 385 289 244 759 752 830 726 1014 1262 1149 1062 703 760 373 163 142 181 90 91 103 87 30 466 478 271 245 209 136 100 94 40 60
802 892 842 735 585 435 817 734 511 277 85 332 531 442 689 960 828 626 1212 986 954 991 852 482 740 308 266 163 97 80 129 83 88 99 477 430 332 167 154 100 107 100 53
996 946 707 365 438 452 408 477 382 387 336 530 477 398 131 134 313 884 906 1222 938 1244 1205 1189 622 416 236 118 59 82 138 80 133 238 202 322 349 144 107 17 2 26 60
431 339 268 291 222 302 278 327 145 169 287 223 508 185 198 77 225 743 754 940 1082 1202 1221 1173 988 485 385 438 218 246 269 252 360 332 248 210 179 215 108 8 0 0 6
648 458 386 402 267 241 282 328 275 217 146 106 248 295 391 557 168 113 391 583 949 863 852 735 548 444 615 769 583 430 269 569 623 483 413 461 387 221 206 117 41 1 0
690 359 399 380 315 269 362 182 237 272 244 263 101 99 279 315 379 176 254 197 710 648 793 684 484 418 296 243 860 649 508 613 668 659 651 579 482 309 183 133 85 57 37
524 339 679 340 245 231 328 277 329 497 220 218 231 199 78 116 156 184 154 125 170 85 146 396 694 167 91 402 183 131 191 470 644 794 645 679 571 447 293 213 152 76 93
515 413 460 350 250 221 438 422 203 158 267 150 258 190 50 87 131 182 145 225 34 209 100 57 134 350 200 219 379 107 169 153 185 233 291 272 196 163 150 180 182 186 178
623 520 558 389 336 476 491 563 692 553 470 327 389 265 63 228 124 197 71 100 38 130 176 117 249 268 279 142 102 14 5 23 26 20 38 31 29 23 27 36 64 86 142
481 312 263 407 273 647 738 627 621 342 448 436 727 666 446 252 148 273 238 151 102 57 61 158 105 157 37 6 4 1 2 1 0 0 0 0 0 0 8 22 27 45 48
312 199 50 115 317 460 829 503 421 362 477 437 396 321 174 195 119 288 288 334 251 156 49 56 92 52 2 2 6 2 4 3 3 1 0 0 0 0 0 0 0 0 0
141 57 27 39 3 68 239 303 189 379 293 301 166 178 242 348 235 198 356 282 212 170 95 161 58 2 1 2 2 1 1 3 4 4 3 2 0 0 0 0 0 0 0
34 3 2 122 82 4 2 1 6 17 8 2 9 38 24 120 204 237 287 327 295 286 250 98 72 1 2 3 3 1 4 4 3 7 7 6 6 8 4 3 1 1 0
27 7 5 18 2 1 2 3 1 0 2 2 2 2 1 0 0 0 0 2 0 46 53 52 1 2 3 3 3 3 3 2 3 4 5 6 6 5 4 2 0 1 0
44 2 3 6 2 2 0 1 2 2 2 2 2 1 1 0 1 2 0 0 0 0 0 0 2 3 2 2 2 2 2 3 3 3 4 4 4 5 5 4 1 0 0
4 4 4 2 0 0 0 3 0 1 0 1 1 0 0 0 0 0 0 0 0 0 0 0 0 1 1 1 1 2 3 2 2 0 0 0 0 0 0 0 0 0 0
2 4 2 0 0 0 0 0 3 0 0 1 1 1 1 0 0 0 0 0 0 0 0 0 0 2 1 2 1 1 0 1 0 3 1 2 2 1 0 0 0 0 0
1 2 2 0 0 0 0 0 0 2 1 2 1 1 0 0 0 0 0 0 0 0 0 0 0 1 1 0 0 0 1 0 1 1 0 2 1 1 2 1 0 0 0
0 0 2 0 0 0 0 0 0 0 0 0 0 0 0 0 0 0 0 0 0 0 0 0 0 0 0 0 0 0 0 0 0 0 0 0 0 0 1 1 0 0 0
0 1 3 2 0 0 0 0 0 0 0 0 0 0 0 0 0 0 0 0 0 0 0 0 0 0 0 0 0 0 2 2 0 0 0 0 0 0 0 0 0 0 0
0 1 1 0 0 0 0 0 0 0 0 0 0 0 0 0 0 0 1 0 0 0 0 0 0 0 0 0 0 0 0 0 1 0 0 4 0 1 0 0 0 0 0
CIN
-7 -4 -33 -65 -86 -6 -58 -111 -158 -99 -30 -10 -14 -10 -13 -17 -14 -8 -22 -22 -38 -46 -51 -36 -19 -22 -21 -2 0 -3 -4 -4 -1 -1 0 0 0 -1 -4 -8 0 0 -1
-17 -15 -53 -93 -109 -49 -22 -86 0 -223 -157 -28 -15 -16 -2 -4 -5 -22 -24 -11 -21 -38 -56 -47 -40 -34 -41 -97 -2 -13 -10 -1 0 -2 -1 -3 -2 -3 -3 -1 -1 -2 -1
-23 -22 -34 -92 -73 -70 -42 -8 -19 0 0 0 -3 -12 -11 -13 -7 -10 -20 -19 -15 -35 -39 -49 -42 -47 -20 -89 -24 -14 -5 -2 -1 0 -6 -12 -4 -5 -4 -5 -1 -1 -1
-5 -7 -3 -2 -5 -41 0 0 0 0 -118 -19 -180 -15 -28 -5 -6 -10 -12 -11 -11 -9 -34 -44 -51 -56 -52 -45 -34 -23 -4 -8 -3 -2 -3 -7 -11 -9 -9 -8 -10 -6 -2
-10 -11 -10 -5 -2 -13 -71 -59 0 -8 -83 -21 -11 -24 -14 -24 -13 -6 -22 -27 -23 -5 -16 -42 -41 -52 -48 -41 -138 -91 -92 -47 -11 -6 -15 -27 -23 -21 -29 -14 -13 -18 -12
-11 -6 -4 -10 -9 -22 -17 -15 -24 -12 -21 -25 -17 -20 -18 -26 -19 -7 -6 -16 -14 -15 -8 -17 -38 -60 -58 -52 -60 -97 -71 -45 -68 -13 -18 -50 -28 -17 -15 -16 -17 -25 -20
-5 -6 -15 -25 -29 -26 -25 -34 -15 -24 -81 -16 -5 -10 -6 -5 -19 -19 -10 -20 -34 -31 -31 -15 -21 -34 -51 -68 -74 -78 -62 -50 -32 -52 -18 -31 -28 -40 -34 -28 -17 -13 -24
-3 -3 -6 -14 -10 -15 -16 -21 -21 -14 -48 -9 -12 -21 -15 -17 -11 -19 -24 -15 -27 -28 -17 -18 -31 -31 -59 -80 -130 -113 -79 -50 -32 -27 -31 -19 -23 -47 -63 -76 -52 -28 -13
-12 -10 -10 -9 -13 -10 -18 -16 -22 -12 -9 -22 -20 -15 -9 -12 -20 -18 -13 -11 -5 -6 -10 -5 -9 -20 -46 -53 -82 -86 -64 -74 -47 -30 -28 -30 -29 -26 -48 -94 0 0 -20
-2 -9 -7 -15 -10 -9 -12 -13 -17 -23 -25 -33 -24 -30 -45 -9 -21 -11 -13 -22 -11 -16 -29 -28 -33 -41 -14 -9 -25 -46 -70 -47 -48 -37 -31 -24 -17 -25 -19 -28 -45 -19 0
-12 -5 -6 -10 -6 -10 -8 -13 -18 -19 -20 -19 -26 -33 -24 -24 -10 -12 -7 -31 -25 -32 -18 -16 -37 -39 -49 -85 -20 -28 -27 -51 -26 -29 -20 -8 -9 -14 -18 -19 -20 -26 -33
-8 -27 -2 -7 -10 -12 -5 -8 -10 -17 -16 -16 -19 -22 -30 -20 -14 -5 -11 -18 -16 -30 -37 -39 -37 -64 -98 -3 -1 -20 0 -3 -6 -13 -19 -12 -6 -5 -6 -8 -8 -13 -12
-8 -10 -7 -16 -14 -7 -2 -6 -15 -19 -19 -24 -20 -33 -41 -39 -23 -10 -14 -17 -14 -18 -28 -50 -43 -39 -61 -4 -2 -77 -31 -52 -95 -82 -60 -44 -55 -46 -32 -15 -7 -3 -3
-2 -3 -3 -11 -11 -2 -2 -9 -3 -12 -19 -24 -17 -23 -36 -31 -33 -20 -19 -15 -24 -15 -16 -17 -26 -66 -33 -48 -48 -173 -199 -186 -188 -169 -143 -124 -110 -93 -79 -55 -39 -27 -13
-9 -20 -24 -3 -16 -4 -3 -3 -2 -16 -15 -14 -3 -5 -9 -27 -34 -8 -13 -28 -20 -21 -12 -18 -40 -83 -152 -212 -200 0 0 0 0 0 0 0 0 0 -71 -53 -49 -47 -33
-35 -44 -103 -38 -5 -5 -1 -13 -5 -10 -4 -7 -11 -16 -33 -17 -30 -23 -11 -9 -14 -16 -10 -32 -35 -66 0 0 0 0 0 0 0 0 0 0 0 0 0 0 0 0 0
-51 -134 -127 -107 -22 -25 -4 -4 -12 -3 -7 -4 -13 -8 -7 -5 -8 -15 -24 -26 -20 -19 -18 -8 -6 0 0 0 0 0 0 0 0 0 0 0 0 0 0 0 0 0 0
-115 -2 -4 -54 -46 -4 -7 -2 -49 -46 -42 -48 -53 -25 -14 -17 -5 -5 -4 -8 -11 -13 -6 -13 -1 0 0 0 0 0 0 0 0 0 0 0 0 0 0 0 0 0 0
-63 -4 -4 -57 -12 -11 -5 -3 -1 0 0 0 0 0 0 0 0 0 0 -1 0 -14 -14 -12 0 0 0 0 0 0 0 0 0 0 0 0 0 0 0 0 0 0 0
-63 -3 -2 -6 -5 -3 -1 -5 -1 -1 0 0 0 0 0 0 0 0 -1 0 0 0 0 0 0 0 0 0 0 0 0 0 0 0 0 0 0 0 0 0 0 0 0
0 0 -1 -2 0 0 0 -3 0 -2 0 0 0 0 0 0 0 0 0 -8 0 0 0 0 0 0 0 0 0 0 0 0 0 0 0 0 0 0 0 0 0 0 0
0 -1 -1 0 0 0 0 0 -4 0 -2 -1 -1 -1 -3 0 0 0 0 0 0 0 0 0 0 0 0 0 0 0 0 0 0 0 0 0 0 0 0 0 0 0 0
-2 -1 -2 0 0 0 0 0 0 -8 -4 -2 -3 -2 -1 0 0 0 0 0 0 0 0 0 0 0 0 0 0 0 0 0 0 0 0 0 0 0 0 0 0 0 0
0 0 -1 0 0 0 0 0 0 -3 -4 0 0 0 0 0 0 0 0 0 0 0 0 0 0 0 0 0 0 0 0 0 0 0 0 0 0 0 0 0 0 0 0
-1 -1 -3 -1 0 0 0 0 0 0 0 0 0 0 0 0 0 0 0 0 0 0 0 0 0 0 0 0 0 -1 -8 -14 0 0 0 0 0 0 0 0 0 0 0
-1 -2 -3 0 0 0 0 0 0 0 0 0 0 0 0 0 0 0 -4 0 0 0 0 0 0 0 0 0 0 0 0 0 -9 0 0 -5 -2 -4 -2 0 0 0 0
Wind_Speed
11 5 11 18 21 17 16 13 16 22 30 15 15 27 14 21 20 17 6 2 3 3 3 4 6 6 4 5 12 4 6 12 12 14 13 13 16 15 17 19 18 17 18
9 4 8 6 23 24 20 15 10 13 30 30 21 7 22 4 14 18 17 7 2 2 2 2 3 4 4 8 28 24 8 12 11 10 12 12 13 12 16 20 18 18 17
7 3 5 3 4 13 15 10 8 13 39 37 26 4 12 12 4 12 13 16 13 4 4 1 4 4 7 11 21 9 12 17 15 10 10 10 8 9 10 9 21 19 15
5 4 2 2 3 9 9 5 2 6 18 29 25 5 3 11 8 6 8 12 17 6 3 2 5 7 9 9 4 1 5 5 22 17 10 8 7 8 8 8 11 16 15
4 3 1 2 5 8 7 4 1 3 4 16 8 15 26 12 19 9 10 7 4 22 15 3 6 8 10 10 4 7 9 10 20 23 12 9 11 12 14 9 11 10 11
5 2 3 5 12 12 9 5 4 7 7 11 4 14 8 12 11 16 11 9 13 23 17 5 4 6 8 7 7 7 12 20 20 23 19 18 11 6 7 9 7 5 5
7 7 6 10 8 7 4 8 13 11 6 34 8 19 17 15 6 7 8 11 15 18 20 15 7 4 6 8 9 14 15 22 24 19 18 17 11 6 4 11 9 7 9
3 7 3 5 11 14 9 6 8 9 5 8 19 21 24 29 29 7 10 12 13 12 16 16 10 5 7 6 11 17 13 19 23 21 20 15 15 14 14 7 19 18 9
8 8 1 3 5 7 14 19 15 7 7 13 13 16 20 21 25 12 10 15 14 12 16 16 14 10 6 6 9 17 27 23 24 20 18 13 16 17 18 17 13 12 14
7 8 4 4 2 4 5 7 9 7 7 9 14 13 28 26 22 18 15 16 18 14 13 16 14 11 13 13 8 7 12 30 23 19 18 14 12 13 14 15 15 15 14
17 16 15 12 8 4 3 4 6 3 6 5 9 12 16 31 22 21 22 20 17 18 17 14 7 8 17 6 13 16 23 10 9 8 5 8 7 6 9 11 12 12 12
26 30 27 18 12 12 7 3 5 2 2 4 7 14 8 22 20 16 20 22 21 19 17 17 15 22 33 29 13 10 28 24 28 2 14 15 16 15 12 8 9 11 12
29 29 26 11 15 15 14 10 8 7 6 4 2 12 9 7 20 19 15 19 21 19 18 18 17 22 5 9 15 13 10 23 20 20 20 23 23 23 25 25 23 11 12
28 30 29 26 18 19 18 15 14 14 11 8 6 9 19 21 18 15 13 13 20 20 19 22 20 19 17 20 19 19 20 22 23 24 24 24 25 25 25 26 28 28 21
27 29 26 27 26 25 18 17 15 14 13 12 10 8 8 20 13 26 7 13 13 20 21 20 21 22 22 24 24 24 25 25 25 25 24 23 24 24 23 22 23 24 24
26 27 26 26 26 25 25 21 18 18 4 10 6 10 10 4 7 22 19 20 14 18 22 19 21 21 22 22 23 23 25 25 25 23 22 22 23 23 22 21 20 20 20
26 26 27 27 27 25 26 24 23 22 21 20 19 18 17 18 16 17 19 20 17 16 20 19 18 21 23 22 22 22 23 24 25 24 23 22 23 21 20 20 19 19 19
25 26 25 26 27 27 26 25 23 23 23 22 20 19 19 18 18 18 17 19 20 20 19 18 16 19 20 20 20 21 22 23 24 24 23 23 23 22 21 21 20 20 19
25 25 25 25 26 26 26 26 25 24 23 22 21 22 21 21 18 18 18 18 18 19 20 18 16 18 18 18 19 19 19 21 22 23 23 23 23 22 22 21 20 20 20
24 23 24 24 25 25 26 26 25 25 25 24 24 23 23 22 21 19 18 17 16 17 17 16 16 16 16 15 16 17 19 19 20 21 22 22 23 23 22 21 20 20 20
23 22 22 22 23 23 24 24 24 25 25 25 25 25 24 23 22 21 19 19 18 17 17 17 16 15 15 16 17 17 17 17 20 20 20 21 21 21 21 21 21 21 20
21 21 21 21 21 22 22 23 23 23 24 24 24 24 23 24 24 23 21 21 20 17 17 16 16 16 17 17 16 16 15 16 18 17 19 20 20 21 21 21 20 21 20
19 19 20 20 20 20 21 22 23 22 23 23 23 22 22 23 22 22 22 22 22 21 19 17 17 17 17 16 15 15 16 16 16 15 17 19 19 20 20 20 19 20 20
17 17 18 18 19 19 20 22 22 21 22 24 23 21 21 21 23 21 22 22 22 22 21 19 18 17 18 17 16 15 15 15 16 15 15 18 18 19 18 18 19 19 19
14 15 16 17 17 18 20 22 21 19 21 22 22 22 20 20 23 20 19 19 20 20 20 20 19 18 18 19 20 13 16 14 16 17 14 18 17 18 17 17 17 16 16
13 14 16 17 18 18 21 22 21 17 19 19 19 20 21 20 22 22 17 18 19 18 17 16 17 17 18 19 21 21 21 20 15 16 19 18 16 17 18 14 15 16 15
Wind_Direction
170 51 344 319 312 318 319 314 305 289 268 292 294 217 293 275 274 287 336 17 119 109 70 97 126 125 77 63 290 4 110 142 143 152 150 153 163 159 168 174 172 161 171
162 121 355 5 313 305 308 305 320 308 261 261 192 149 271 344 302 285 289 311 302 318 339 105 135 142 127 122 221 249 143 159 156 152 160 160 162 157 170 185 176 175 172
156 95 12 168 152 345 319 319 338 348 255 227 202 156 301 306 337 305 305 300 301 279 298 246 162 162 161 158 185 166 174 185 179 165 166 166 159 158 161 159 193 184 172
126 154 123 87 71 18 353 355 293 337 193 222 202 170 270 304 312 319 316 311 298 308 264 183 170 175 174 172 290 291 307 280 200 189 178 179 177 175 171 168 174 184 181
100 160 221 354 2 355 355 339 247 234 185 195 193 304 226 301 294 307 313 318 283 284 302 240 181 176 181 183 225 299 294 272 199 202 190 191 193 193 192 185 188 184 185
44 26 306 256 330 329 320 307 302 303 282 200 216 308 308 301 299 302 306 317 303 287 296 319 195 199 192 189 211 202 188 201 200 200 198 197 193 221 212 202 211 250 257
218 3 346 234 224 312 280 216 310 303 236 222 307 301 307 302 276 281 306 306 301 293 293 291 303 248 249 219 212 201 197 201 203 197 198 198 195 195 247 200 293 275 221
68 23 350 238 224 223 223 271 290 300 241 205 300 298 293 280 277 265 295 305 310 303 297 296 301 285 281 249 201 201 208 200 202 199 201 201 203 205 201 214 299 294 276
33 35 359 223 220 214 219 218 303 253 267 298 301 300 295 295 297 299 290 303 308 307 302 301 300 289 231 238 211 199 205 201 201 198 199 200 206 209 211 213 216 221 286
53 40 45 53 200 198 198 201 315 290 284 284 303 296 276 286 295 299 304 305 306 314 307 301 305 297 289 302 272 272 196 213 198 197 199 201 207 212 217 220 222 224 228
33 30 27 34 40 50 30 3 343 297 303 297 301 304 291 270 287 288 296 303 311 313 309 308 311 312 299 282 290 291 208 196 196 191 198 210 218 239 236 235 235 245 249
11 343 342 26 41 32 34 98 42 51 3 329 313 299 293 287 290 293 297 291 300 309 318 320 312 304 290 293 307 316 264 207 217 258 318 319 318 318 308 264 258 265 270
356 350 357 58 45 44 49 77 73 65 17 18 83 311 305 300 284 297 306 300 296 303 312 321 335 322 341 355 5 10 360 320 330 326 325 320 319 319 312 309 307 289 284
353 352 354 346 46 41 52 63 76 46 54 71 30 330 284 276 286 307 311 315 301 300 307 302 326 338 348 342 359 359 344 337 333 329 326 325 323 321 318 312 307 304 311
11 359 338 349 0 359 50 58 86 89 89 128 117 113 132 201 300 278 326 314 317 306 304 314 320 336 338 331 332 337 338 337 335 332 330 330 330 330 328 326 323 319 316
6 0 350 349 354 351 12 33 43 33 96 270 42 102 127 79 347 289 302 306 322 310 305 324 328 336 342 342 345 344 343 344 344 339 336 336 336 335 337 338 337 335 332
18 8 6 10 11 3 14 17 13 6 10 1 345 339 332 323 328 319 310 306 316 320 312 324 334 335 337 344 349 355 358 352 353 353 353 352 350 347 346 346 345 342 342
24 22 11 13 20 20 17 16 13 13 18 10 359 0 351 348 341 335 332 322 315 317 323 327 341 338 343 348 352 351 352 359 -0 6 3 360 360 356 354 356 354 357 355
25 21 14 17 19 19 21 27 29 24 16 6 6 7 9 12 346 346 349 342 332 326 326 337 343 341 344 350 358 359 0 2 7 7 4 4 5 2 357 2 359 359 356
23 19 19 27 26 26 25 32 33 32 28 23 17 14 27 27 21 14 14 15 0 357 359 1 1 4 4 8 4 6 4 359 359 1 3 360 6 4 4 4 3 3 1
25 24 24 20 22 22 18 28 35 36 37 33 30 27 21 19 16 16 16 13 19 22 20 21 18 15 12 4 356 357 355 356 355 2 3 360 2 3 3 3 3 4 4
25 24 25 21 21 23 11 14 29 32 30 31 30 31 34 28 26 23 19 13 8 14 14 11 9 4 2 2 7 4 6 356 352 3 1 4 4 5 7 8 11 10 8
22 21 14 19 19 20 13 9 9 28 25 24 23 28 26 19 24 24 17 13 11 11 13 14 10 8 6 6 10 6 1 358 357 9 6 358 359 358 360 2 3 5 6
22 21 21 18 16 12 8 4 7 21 20 15 14 20 25 21 14 24 25 21 18 15 14 17 18 15 10 8 9 8 11 9 6 5 6 355 358 354 3 4 3 2 2
24 26 22 16 15 12 2 2 6 18 10 12 12 11 15 12 5 16 25 22 20 23 24 25 25 21 13 4 353 359 356 358 355 353 1 354 357 358 2 8 13 10 9
18 15 13 10 16 12 357 357 358 20 19 17 16 11 8 5 360 0 13 12 9 15 20 24 19 15 11 1 352 349 343 346 355 353 350 349 2 1 356 12 15 17 16